Dothan, AL

12:46 PM CST on January 17, 2018 (GMT -0600)
Dothan Regional

Weather History for KDHN - August, 2013

Change the Weather History Date:

Sunday, August 4, 2013

  Actual Average Record
Temperature  
Mean Temperature 85 °F 82 °F  
Max Temperature 94 °F 92 °F 99 °F (1947)
Min Temperature 75 °F 72 °F 66 °F (1950)
Cooling Degree Days 20 17  
Month to date cooling degree days 74 68  
Year to date cooling degree days 1353 1449  
Since 1 June cooling degree days 981 1036  
Growing Degree Days 34 (Base 50)    
Moisture  
Dew Point 74 °F    
Average Humidity 75    
Maximum Humidity 96    
Minimum Humidity 51    
Precipitation  
Precipitation 0.02 in 0.15 in 1.66 in (2010)
Month to date precipitation 0.02 0.61  
Year to date precipitation 49.48 34.52  
Sea Level Pressure  
Sea Level Pressure 30.04 in    
Wind  
Wind Speed 6 mph (West)    
Max Wind Speed 12 mph    
Max Gust Speed -    
Visibility 9 miles    
Events Thunderstorm    
T = Trace of Precipitation, MM = Missing Value Source: NWS Daily Summary

Daily Weather History Graph

Daily Weather History Graph

Search for Another Location

Airport or City:

Trip Planner

Search our weather history database for the weather conditions in past years. The results will help you decide how hot, cold, wet, or windy it might be!

Date:

Astronomy

Aug. 04, 2013 Rise Set
Actual Time 6:00 AM CDT 7:34 PM CDT
Civil Twilight 5:34 AM CDT 8:00 PM CDT
Nautical Twilight 5:02 AM CDT 8:32 PM CDT
Astronomical Twilight 4:29 AM CDT 9:05 PM CDT
Moon 4:02 AM CDT (8/4) 5:57 PM CDT (8/4)
Length of Visible Light 14h 26m
Length of Day
13h 34m
Waning Crescent, 4% of the Moon is Illuminated
Aug 4
Waning Crescent
Aug 6
New
Aug 14
First Quarter
Aug 20
Full
Aug 28
Last Quarter

Hourly Weather History & Observations

Time (CDT) Temp. Heat Index Dew Point Humidity Pressure Visibility Wind Dir Wind Speed Gust Speed Precip Events Conditions
12:53 AM 77.0 °F - 73.9 °F 90% 30.07 in 9.0 mi SW 4.6 mph - N/A   Clear
1:53 AM 77.0 °F - 73.9 °F 90% 30.06 in 9.0 mi WSW 4.6 mph - N/A   Clear
2:53 AM 75.9 °F - 73.9 °F 94% 30.05 in 9.0 mi WSW 4.6 mph - N/A   Clear
3:53 AM 77.0 °F - 73.9 °F 90% 30.05 in 8.0 mi West 5.8 mph - N/A   Clear
4:53 AM 75.9 °F - 73.9 °F 94% 30.05 in 6.0 mi West 4.6 mph - N/A   Clear
5:53 AM 75.0 °F - 73.9 °F 96% 30.06 in 5.0 mi West 3.5 mph - N/A   Clear
6:53 AM 77.0 °F - 75.0 °F 94% 30.06 in 5.0 mi WSW 3.5 mph - N/A   Clear
7:53 AM 81.0 °F 86.2 °F 73.9 °F 79% 30.08 in 8.0 mi West 8.1 mph - N/A   Clear
8:53 AM 81.0 °F 86.2 °F 73.9 °F 79% 30.08 in 7.0 mi WNW 6.9 mph - N/A   Clear
9:53 AM 87.1 °F 95.4 °F 73.9 °F 65% 30.08 in 9.0 mi WNW 8.1 mph - N/A   Clear
10:53 AM 88.0 °F 95.6 °F 73.0 °F 61% 30.09 in 9.0 mi NW 5.8 mph - N/A   Clear
11:53 AM 90.0 °F 99.0 °F 73.9 °F 59% 30.07 in 10.0 mi NW 8.1 mph - N/A   Scattered Clouds
12:53 PM 91.0 °F 100.4 °F 73.9 °F 57% 30.04 in 10.0 mi West 9.2 mph - N/A   Clear
1:53 PM 91.9 °F 101.3 °F 73.9 °F 55% 30.02 in 10.0 mi NW 11.5 mph - 0.02 in   Partly Cloudy
2:53 PM 93.9 °F 103.4 °F 73.0 °F 51% 29.99 in 10.0 mi West 8.1 mph - N/A   Partly Cloudy
3:53 PM 89.1 °F 98.0 °F 73.9 °F 61% 29.99 in 10.0 mi NW 6.9 mph - 0.00 in   Scattered Clouds
4:53 PM 90.0 °F 99.0 °F 73.9 °F 59% 29.98 in 10.0 mi NNW 9.2 mph - N/A   Clear
5:53 PM 89.1 °F 97.0 °F 73.0 °F 59% 29.99 in 10.0 mi NW 5.8 mph - N/A   Clear
6:45 PM 87.8 °F 97.6 °F 75.2 °F 66% 30.01 in 10.0 mi North 5.8 mph - N/A Thunderstorm Partly Cloudy
6:53 PM 87.1 °F 97.3 °F 75.9 °F 69% 30.00 in 10.0 mi NNW 4.6 mph - N/A Thunderstorm Partly Cloudy
7:01 PM 87.8 °F 97.6 °F 75.2 °F 66% 30.02 in 10.0 mi NW 4.6 mph - N/A   Clear
7:15 PM 86.0 °F 95.1 °F 75.2 °F 70% 30.01 in 10.0 mi WNW 3.5 mph - N/A Thunderstorm Clear
7:30 PM 84.2 °F 90.9 °F 73.4 °F 70% 30.01 in 10.0 mi West 4.6 mph - N/A   Clear
7:53 PM 81.0 °F 86.2 °F 73.9 °F 79% 30.01 in 10.0 mi WSW 3.5 mph - N/A   Clear
8:53 PM 81.0 °F 85.8 °F 73.0 °F 77% 30.04 in 10.0 mi SSW 4.6 mph - N/A   Clear
9:53 PM 78.1 °F - 73.9 °F 87% 30.04 in 10.0 mi South 4.6 mph - N/A   Partly Cloudy
10:53 PM 78.1 °F - 73.0 °F 84% 30.05 in 10.0 mi SSW 4.6 mph - N/A   Clear
11:53 PM 77.0 °F - 73.0 °F 88% 30.04 in 10.0 mi Calm Calm - N/A   Clear